sat.trackr.live / text

‹ back to catalog

STARLINK-33803

NORAD 63517 · 2025-071AA

PAYLOAD ACTIVE UNKNOWN

§ Identity

Operator
Country
US
Launch date
2025-04-07
Launch site
AFWTR
Launch vehicle
Mass (kg)
RCS (m²)

Purposes: comms

External: N2YO · Heavens-Above · Gunter

§ Orbital elements

Epoch: 2026-05-24T06:34:59.284128Z

Period
94.11 min
Inclination
53.1602°
Eccentricity
0.0001003
Mean motion
15.30203120 rev/d
Perigee alt
474.5 km
Apogee alt
475.9 km
Semi-major
6,853.3 km
B*
2.9363e-4
RAAN
148.6928°
Arg perigee
90.0744°
Mean anomaly
270.0371°
Rev number
6,434

§ Raw data

STARLINK-338031 63517U 25071AA  26144.27429727  .00008348  00000+0  29363-3 0  99922 63517  53.1602 148.6928 0001003  90.0744 270.0371 15.30203120 64341

JSON: /api/v1/satellites/63517 · /tle

For live sub-satellite position, see the globe view (requires WebGL).

§ Visibility from observer

Set your observer location to see the next 7 days of passes ≥ 10°. The values pass through the URL so the page stays shareable.

No JS? Fill the form by hand. The geolocation button needs JavaScript.